Weather History for KSTE - September, 2013

Change the Weather History Date:

Thursday, September 5, 2013

  Actual Average Record
Temperature  
Mean Temperature 61 °F -  
Max Temperature 72 °F 75 °F 91 °F (2007)
Min Temperature 50 °F 52 °F 37 °F (1957)
Degree Days  
Heating Degree Days 4    
Growing Degree Days 11 (Base 50)    
Moisture  
Dew Point 49 °F    
Average Humidity 70    
Maximum Humidity 97    
Minimum Humidity 39    
Precipitation  
Precipitation 0.00 in - - ()
Sea Level Pressure  
Sea Level Pressure 30.25 in    
Wind  
Wind Speed 6 mph (East)    
Max Wind Speed 10 mph    
Max Gust Speed -    
Visibility 10 miles    
Events      
Averages and records for this station are not official NWS values.
T = Trace of Precipitation, MM = Missing Value Source: NWS Daily Summary

Daily Weather History Graph

Daily Weather History Graph

Search for Another Location

Airport or City:

Trip Planner

Search our weather history database for the weather conditions in past years. The results will help you decide how hot, cold, wet, or windy it might be!

Date:

Astronomy

Sep. 05, 2013 Rise Set
Actual Time 6:25 AM CDT 7:26 PM CDT
Civil Twilight 5:55 AM CDT 7:56 PM CDT
Nautical Twilight 5:20 AM CDT 8:32 PM CDT
Astronomical Twilight 4:42 AM CDT 9:09 PM CDT
Moon 6:39 AM CDT (9/5) 7:14 PM CDT (9/5)
Length of Visible Light 14h 00m
Length of Day
13h 01m
New Moon, 0% of the Moon is Illuminated
Sep 5
New Moon
Sep 12
First Quarter
Sep 19
Full
Sep 26
Last Quarter
Oct 4
New

Hourly Weather History & Observations

Time (CDT) Temp. Dew Point Humidity Pressure Visibility Wind Dir Wind Speed Gust Speed Precip Events Conditions
12:15 AM 56.8 °F 55.0 °F 94% 30.18 in 10.0 mi NE 5.8 mph - N/A   Clear
12:35 AM 55.9 °F 54.5 °F 95% 30.19 in 10.0 mi NNE 4.6 mph - N/A   Scattered Clouds
12:55 AM 55.0 °F 53.6 °F 95% 30.19 in 10.0 mi NNE 5.8 mph - N/A   Clear
1:15 AM 55.6 °F 54.0 °F 94% 30.20 in 10.0 mi NNE 6.9 mph - N/A   Mostly Cloudy
1:35 AM 56.3 °F 54.9 °F 95% 30.20 in 10.0 mi NE 5.8 mph - N/A   Overcast
1:55 AM 57.2 °F 56.3 °F 97% 30.20 in 10.0 mi ENE 5.8 mph - N/A   Overcast
2:15 AM 57.6 °F 56.8 °F 97% 30.21 in 7.0 mi ENE 5.8 mph - N/A   Overcast
2:35 AM 57.4 °F 56.3 °F 96% 30.21 in 7.0 mi East 9.2 mph - N/A   Overcast
2:55 AM 57.2 °F 55.8 °F 95% 30.22 in 7.0 mi East 6.9 mph - N/A   Overcast
3:15 AM 57.2 °F 56.3 °F 97% 30.22 in 5.0 mi East 5.8 mph - N/A   Overcast
3:35 AM 57.0 °F 55.2 °F 94% 30.22 in 7.0 mi ENE 6.9 mph - N/A   Overcast
3:55 AM 56.3 °F 53.6 °F 91% 30.23 in 10.0 mi ENE 6.9 mph - N/A   Overcast
4:15 AM 54.5 °F 51.8 °F 91% 30.23 in 10.0 mi East 6.9 mph - N/A   Overcast
4:35 AM 54.1 °F 50.9 °F 89% 30.25 in 10.0 mi ENE 4.6 mph - N/A   Overcast
4:55 AM 53.2 °F 49.6 °F 88% 30.26 in 10.0 mi East 6.9 mph - N/A   Overcast
5:15 AM 52.9 °F 49.1 °F 87% 30.26 in 10.0 mi East 6.9 mph - N/A   Overcast
5:35 AM 52.2 °F 49.1 °F 89% 30.26 in 10.0 mi East 3.5 mph - N/A   Overcast
5:55 AM 51.3 °F 48.6 °F 90% 30.27 in 10.0 mi ENE 3.5 mph - N/A   Mostly Cloudy
6:15 AM 50.9 °F 47.7 °F 89% 30.28 in 10.0 mi ENE 4.6 mph - N/A   Mostly Cloudy
6:35 AM 50.2 °F 47.3 °F 90% 30.28 in 10.0 mi ENE 3.5 mph - N/A   Mostly Cloudy
6:55 AM 50.0 °F 47.3 °F 90% 30.29 in 10.0 mi ENE 3.5 mph - N/A   Overcast
7:15 AM 50.0 °F 46.8 °F 89% 30.29 in 10.0 mi ENE 5.8 mph - N/A   Scattered Clouds
7:35 AM 50.5 °F 46.4 °F 86% 30.30 in 10.0 mi East 8.1 mph - N/A   Clear
7:55 AM 51.4 °F 46.2 °F 82% 30.31 in 10.0 mi East 5.8 mph - N/A   Clear
8:15 AM 53.1 °F 46.2 °F 78% 30.31 in 10.0 mi East 9.2 mph - N/A   Clear
8:35 AM 54.7 °F 46.4 °F 74% 30.31 in 10.0 mi East 8.1 mph - N/A   Clear
8:55 AM 56.3 °F 45.5 °F 67% 30.31 in 10.0 mi East 6.9 mph - N/A   Clear
9:15 AM 56.8 °F 44.1 °F 62% 30.32 in 10.0 mi East 10.4 mph - N/A   Clear
9:35 AM 57.9 °F 45.1 °F 62% 30.32 in 10.0 mi East 9.2 mph - N/A   Clear
9:55 AM 58.6 °F 44.2 °F 59% 30.32 in 10.0 mi East 9.2 mph - N/A   Clear
10:15 AM 59.9 °F 44.4 °F 57% 30.32 in 10.0 mi East 8.1 mph - N/A   Clear
10:35 AM 60.6 °F 45.1 °F 57% 30.32 in 10.0 mi East 8.1 mph - N/A   Clear
10:55 AM 61.2 °F 45.7 °F 57% 30.31 in 10.0 mi East 8.1 mph - N/A   Clear
11:15 AM 62.2 °F 46.4 °F 56% 30.31 in 10.0 mi ESE 6.9 mph - N/A   Clear
11:35 AM 63.5 °F 47.8 °F 57% 30.31 in 10.0 mi SSE 6.9 mph - N/A   Clear
11:55 AM 64.2 °F 47.8 °F 55% 30.31 in 10.0 mi East 4.6 mph - N/A   Clear
12:15 PM 64.4 °F 47.7 °F 55% 30.30 in 10.0 mi SSE 8.1 mph - N/A   Clear
12:35 PM 65.5 °F 48.4 °F 54% 30.30 in 10.0 mi SSE 9.2 mph - N/A   Clear
12:55 PM 66.6 °F 48.9 °F 53% 30.29 in 10.0 mi SE 9.2 mph - N/A   Clear
1:15 PM 66.9 °F 48.7 °F 52% 30.29 in 10.0 mi South 4.6 mph - N/A   Clear
1:35 PM 67.8 °F 46.0 °F 46% 30.28 in 10.0 mi SE 3.5 mph - N/A   Clear
1:55 PM 68.9 °F 46.6 °F 45% 30.28 in 10.0 mi ESE 6.9 mph - N/A   Clear
2:15 PM 69.6 °F 47.3 °F 45% 30.27 in 10.0 mi Calm Calm - N/A   Clear
2:35 PM 70.0 °F 47.3 °F 44% 30.26 in 10.0 mi SE 5.8 mph - N/A   Clear
2:55 PM 71.1 °F 47.7 °F 43% 30.26 in 10.0 mi ESE 3.5 mph - N/A   Clear
3:15 PM 72.1 °F 45.9 °F 39% 30.25 in 10.0 mi SE 5.8 mph - N/A   Clear
3:35 PM 71.8 °F 47.5 °F 42% 30.25 in 10.0 mi SSE 5.8 mph - N/A   Clear
3:55 PM 72.5 °F 49.1 °F 44% 30.25 in 10.0 mi ESE 8.1 mph - N/A   Clear
4:15 PM 71.8 °F 48.7 °F 44% 30.24 in 10.0 mi ENE 3.5 mph - N/A   Clear
4:35 PM 72.0 °F 47.7 °F 42% 30.23 in 10.0 mi ESE 5.8 mph - N/A   Clear
4:55 PM 72.3 °F 48.2 °F 42% 30.23 in 10.0 mi SE 8.1 mph - N/A   Clear
5:15 PM 72.1 °F 48.7 °F 43% 30.23 in 10.0 mi East 5.8 mph - N/A   Clear
5:35 PM 71.8 °F 49.3 °F 45% 30.23 in 10.0 mi ESE 8.1 mph - N/A   Clear
5:55 PM 71.6 °F 49.8 °F 46% 30.23 in 10.0 mi ESE 5.8 mph - N/A   Clear
6:15 PM 70.7 °F 49.6 °F 47% 30.22 in 10.0 mi ESE 5.8 mph - N/A   Clear
6:35 PM 69.8 °F 50.4 °F 50% 30.22 in 10.0 mi ESE 5.8 mph - N/A   Clear
6:55 PM 68.2 °F 50.5 °F 53% 30.22 in 10.0 mi ESE 4.6 mph - N/A   Clear
7:15 PM 66.2 °F 50.7 °F 57% 30.22 in 10.0 mi ESE 5.8 mph - N/A   Clear
7:35 PM 63.7 °F 50.4 °F 62% 30.22 in 10.0 mi ESE 4.6 mph - N/A   Clear
7:55 PM 62.6 °F 50.7 °F 65% 30.23 in 10.0 mi ESE 4.6 mph - N/A   Clear
8:15 PM 61.7 °F 50.4 °F 66% 30.23 in 10.0 mi East 3.5 mph - N/A   Clear
8:35 PM 59.9 °F 50.9 °F 72% 30.23 in 10.0 mi Calm Calm - N/A   Clear
8:55 PM 59.4 °F 50.9 °F 74% 30.23 in 10.0 mi East 3.5 mph - N/A   Clear
9:15 PM 57.0 °F 50.9 °F 80% 30.23 in 10.0 mi Calm Calm - N/A   Clear
9:35 PM 56.7 °F 50.5 °F 80% 30.23 in 10.0 mi Calm Calm - N/A   Clear
9:55 PM 56.7 °F 49.1 °F 76% 30.23 in 10.0 mi Calm Calm - N/A   Clear
10:15 PM 55.9 °F 49.1 °F 78% 30.23 in 10.0 mi Calm Calm - N/A   Clear
10:35 PM 55.9 °F 48.6 °F 76% 30.23 in 10.0 mi SSE 3.5 mph - N/A   Clear
10:55 PM 56.5 °F 49.1 °F 76% 30.23 in 10.0 mi SE 3.5 mph - N/A   Clear
11:15 PM 56.3 °F 49.3 °F 77% 30.23 in 10.0 mi Calm Calm - N/A   Clear
11:35 PM 55.8 °F 49.6 °F 80% 30.23 in 10.0 mi SSE 3.5 mph - N/A   Clear
11:55 PM 55.4 °F 49.5 °F 80% 30.23 in 10.0 mi SE 4.6 mph - N/A   Clear